Weather History for Crossville, TN

Change the Weather History Date:

Sunday, June 30, 2013

  Actual Average Record
Temperature  
Mean Temperature 71 °F 74 °F  
Max Temperature 80 °F 83 °F 100 °F (2012)
Min Temperature 61 °F 64 °F 52 °F (1954)
Degree Days  
Heating Degree Days 0    
Month to date heating degree days 0  
Since 1 June heating degree days 0  
Since 1 July heating degree days 4343  
Cooling Degree Days 6    
Month to date cooling degree days 194  
Year to date cooling degree days 274  
Since 1 June cooling degree days 194  
Growing Degree Days 20 (Base 50)    
Moisture  
Dew Point 60 °F    
Average Humidity 73    
Maximum Humidity 97    
Minimum Humidity 48    
Precipitation  
Precipitation 0.15 in 0.15 in 2.01 in (1965)
Month to date precipitation 3.86 4.60  
Year to date precipitation 33.89 28.98  
Sea Level Pressure  
Sea Level Pressure 29.76 in    
Wind  
Wind Speed 3 mph (West)    
Max Wind Speed 10 mph    
Max Gust Speed 18 mph    
Visibility 9 miles    
Events Rain , Thunderstorm    
T = Trace of Precipitation, MM = Missing Value Source: NWS Daily Summary

Daily Weather History Graph

Daily Weather History Graph

Search for Another Location

Airport:

Trip Planner

Search our weather history database for the weather conditions in past years. The results will help you decide how hot, cold, wet, or windy it might be!

Date:

Astronomy

Jun. 30, 2013 Rise Set
Actual Time 5:27 AM CDT 8:00 PM CDT
Civil Twilight 4:56 AM CDT 8:31 PM CDT
Nautical Twilight 4:19 AM CDT 9:08 PM CDT
Astronomical Twilight 3:38 AM CDT 9:49 PM CDT
Moon 12:16 AM CDT (6/30) 1:23 PM CDT (6/30)
Length of Visible Light 15h 34m
Length of Day
14h 33m
Last Quarter, 45% of the Moon is Illuminated
Jun 30
Last Quarter
Jul 8
New
Jul 15
First Quarter
Jul 22
Full
Jul 29
Last Quarter

Hourly Weather History & Observations

Time (CDT) Temp. Dew Point Humidity Pressure Visibility Wind Dir Wind Speed Gust Speed Precip Events Conditions
12:53 AM 66.9 °F 59.0 °F 76% 29.70 in 10.0 mi Calm Calm - N/A   Clear
1:53 AM 66.0 °F 59.0 °F 78% 29.69 in 10.0 mi SW 3.5 mph - N/A   Clear
2:53 AM 63.0 °F 59.0 °F 87% 29.69 in 10.0 mi SW 3.5 mph - N/A   Clear
3:53 AM 61.0 °F 59.0 °F 93% 29.70 in 10.0 mi Calm Calm - N/A   Clear
4:53 AM 62.1 °F 59.0 °F 90% 29.71 in 10.0 mi Calm Calm - N/A   Clear
5:53 AM 61.0 °F 59.0 °F 93% 29.72 in 10.0 mi Calm Calm - N/A   Clear
6:53 AM 64.9 °F 60.1 °F 84% 29.74 in 10.0 mi Calm Calm - N/A   Clear
7:53 AM 70.0 °F 62.1 °F 76% 29.74 in 10.0 mi WSW 4.6 mph - N/A   Clear
8:53 AM 72.0 °F 61.0 °F 68% 29.76 in 10.0 mi West 6.9 mph - N/A   Clear
9:53 AM 73.9 °F 63.0 °F 68% 29.76 in 10.0 mi WNW 5.8 mph - N/A   Clear
10:53 AM 75.9 °F 61.0 °F 60% 29.77 in 10.0 mi Calm Calm - N/A   Partly Cloudy
11:53 AM 77.0 °F 60.1 °F 56% 29.77 in 10.0 mi West 8.1 mph - N/A   Scattered Clouds
12:53 PM 79.0 °F 57.9 °F 48% 29.75 in 10.0 mi Variable 4.6 mph - N/A   Scattered Clouds
1:53 PM 78.1 °F 57.9 °F 50% 29.75 in 10.0 mi SSW 6.9 mph - N/A   Scattered Clouds
2:53 PM 77.0 °F 57.9 °F 52% 29.75 in 10.0 mi NNW 4.6 mph - N/A   Mostly Cloudy
3:53 PM 78.1 °F 59.0 °F 52% 29.75 in 10.0 mi NW 4.6 mph - N/A   Mostly Cloudy
4:50 PM 66.2 °F 59.0 °F 78% 29.83 in 4.0 mi Variable 6.9 mph 16.1 mph 0.03 in Rain , Thunderstorm Thunderstorms and Rain
4:53 PM 64.9 °F 59.0 °F 81% 29.79 in 2.0 mi Variable 6.9 mph 16.1 mph 0.08 in Rain , Thunderstorm Heavy Thunderstorms and Rain
5:00 PM 64.4 °F 57.2 °F 77% 29.83 in 1.2 mi WSW 4.6 mph - 0.04 in Rain , Thunderstorm Heavy Thunderstorms and Rain
5:08 PM 64.4 °F 60.8 °F 88% 29.82 in 2.0 mi NW 8.1 mph - 0.06 in Rain Light Rain
5:17 PM 64.4 °F 60.8 °F 88% 29.81 in 9.0 mi North 5.8 mph - 0.06 in Rain Light Rain
5:53 PM 68.0 °F 62.1 °F 81% 29.76 in 10.0 mi Calm Calm - 0.06 in   Scattered Clouds
6:53 PM 66.9 °F 64.0 °F 90% 29.78 in 10.0 mi Calm Calm - N/A   Overcast
7:53 PM 68.0 °F 63.0 °F 84% 29.78 in 10.0 mi Calm Calm - N/A   Mostly Cloudy
8:53 PM 66.9 °F 64.0 °F 90% 29.79 in 10.0 mi Calm Calm - N/A   Partly Cloudy
9:53 PM 64.9 °F 62.1 °F 90% 29.81 in 10.0 mi NW 4.6 mph - N/A   Clear
10:53 PM 64.9 °F 63.0 °F 93% 29.82 in 10.0 mi Calm Calm - N/A   Overcast
11:53 PM 64.9 °F 62.1 °F 90% 29.81 in 10.0 mi Calm Calm - 0.01 in   Mostly Cloudy